Location: Galliano
(29.4422°N, 90.2993°W)
Time: 04:02:14
(UTC-06:00)

Tiangong 2 - Visible Passes

Search period start: 20 February 2018 00:00
Search period end: 02 March 2018 00:00
Orbit: 384 x 388 km, 42.8° (Epoch: 19 February)

Date Brightness Start Highest point End Pass type
(mag) Time Alt. Az. Time Alt. Az. Time Alt. Az.
20 Feb 3.0 18:59:20 10° NNW 19:01:32 17° NNE 19:01:40 17° NNE visible
21 Feb 3.0 19:36:29 10° NW 19:38:04 26° NW 19:38:04 26° NW visible
22 Feb 2.2 18:37:44 10° NW 18:40:33 28° NNE 18:42:18 17° ENE visible
22 Feb 4.7 20:14:31 10° W 20:14:35 10° W 20:14:35 10° W visible
23 Feb 1.3 19:15:15 10° WNW 19:18:23 64° SW 19:18:57 51° SSE visible
24 Feb 4.1 19:54:26 10° WSW 19:55:47 13° SW 19:55:47 13° SW visible
25 Feb 3.1 18:54:20 10° W 18:57:04 27° SW 18:59:47 10° SSE visible
27 Feb 4.2 18:34:15 10° WSW 18:35:37 12° SW 18:36:59 10° SSW visible
